CW7933 Weather Reports


Display with metric or nautical units.
time (UTC)temp
F
wind
direction
speed
MPH
gust
MPH
rain 1hr
in
rain 24hr
in
rain mn
in
humidity
%
barometer
mb
20200403235958 45 311 5.0 11.0 0.00 0.02 0.02 85 1013.2
20200403233952 45 319 6.0 12.0 0.00 0.02 0.02 85 1013.1
20200403233022 45 327 0.0 10.0 0.00 0.02 0.02 85 1012.9
20200403232022 46 346 5.0 11.0 0.00 0.02 0.02 84 1013.0
20200403230952 46 317 1.0 12.0 0.00 0.02 0.02 84 1012.9
20200403225951 46 313 5.0 13.0 0.00 0.02 0.02 83 1012.8
20200403224021 47 284 9.0 13.0 0.00 0.02 0.02 81 1012.6
20200403223021 47 328 6.0 16.0 0.00 0.02 0.02 80 1012.5
20200403221951 47 330 2.0 14.0 0.00 0.02 0.02 80 1012.3
20200403220951 47 339 6.0 18.0 0.00 0.02 0.02 80 1012.2
20200403215021 47 330 7.0 16.0 0.00 0.02 0.02 80 1011.8
20200403214020 47 291 7.0 13.0 0.00 0.02 0.02 81 1011.7
20200403212950 47 333 4.0 14.0 0.00 0.02 0.02 82 1011.6
20200403211950 47 322 8.0 14.0 0.00 0.02 0.02 83 1011.5
20200403210950 46 309 8.0 16.0 0.00 0.02 0.02 83 1011.3
20200403205020 46 309 11.0 16.0 0.00 0.02 0.02 84 1011.1
20200403204020 46 336 8.0 10.0 0.00 0.02 0.02 84 1011.0
20200403203020 46 267 5.0 14.0 0.00 0.02 0.02 84 1010.9
20200403202020 46 272 6.0 12.0 0.00 0.02 0.02 83 1010.9
20200403201020 46 279 9.0 17.0 0.00 0.02 0.02 82 1010.8
20200403195957 47 331 7.0 14.0 0.00 0.02 0.02 81 1010.9
20200403194957 47 319 10.0 19.0 0.00 0.02 0.02 80 1010.8
20200403193957 47 318 8.0 13.0 0.00 0.02 0.02 81 1010.9
20200403192957 47 296 9.0 19.0 0.00 0.02 0.02 81 1010.8
20200403191957 47 315 4.0 13.0 0.00 0.02 0.02 80 1010.8
20200403190957 47 324 7.0 17.0 0.00 0.02 0.02 80 1010.8
20200403185003 46 317 5.0 16.0 0.00 0.02 0.02 81 1010.7
20200403183956 46 333 5.0 19.0 0.00 0.02 0.02 80 1010.8
20200403182956 46 315 8.0 15.0 0.00 0.02 0.02 81 1010.7
20200403180956 45 316 7.0 15.0 0.00 0.02 0.02 81 1010.5
20200403175956 45 320 8.0 15.0 0.00 0.02 0.02 81 1010.5
20200403174955 45 281 7.0 19.0 0.00 0.02 0.02 82 1010.4
20200403173955 44 306 8.0 16.0 0.00 0.02 0.02 82 1010.3
20200403172955 44 355 11.0 14.0 0.00 0.02 0.02 83 1010.4
20200403171955 44 300 5.0 17.0 0.00 0.02 0.02 83 1010.4
20200403170955 44 315 5.0 15.0 0.00 0.02 0.02 84 1010.6
20200403164955 43 308 4.0 15.0 0.00 0.02 0.02 84 1010.6
20200403163954 43 347 9.0 15.0 0.00 0.02 0.02 85 1010.5
20200403162954 42 307 10.0 16.0 0.00 0.02 0.02 85 1010.5
20200403160954 41 282 7.0 16.0 0.00 0.02 0.02 86 1010.7
20200403155954 41 314 4.0 17.0 0.00 0.02 0.02 86 1010.7
20200403154954 41 337 7.0 16.0 0.00 0.02 0.02 86 1010.7
20200403153954 41 319 6.0 17.0 0.01 0.02 0.02 87 1010.8
20200403152954 41 305 9.0 15.0 0.01 0.02 0.02 87 1010.6
20200403151954 40 313 5.0 12.0 0.01 0.02 0.02 88 1010.5
20200403150953 40 292 4.0 9.0 0.01 0.02 0.02 88 1010.4
20200403145953 40 311 2.0 11.0 0.01 0.02 0.02 88 1010.3
20200403144953 40 285 2.0 10.0 0.01 0.02 0.02 87 1010.3
20200403144023 40 314 7.0 9.0 0.01 0.01 0.01 87 1010.3
20200403143053 39 320 3.0 12.0 0.01 0.01 0.01 87 1010.0
20200403141953 39 313 7.0 15.0 0.01 0.01 0.01 87 1010.0
20200403140953 39 335 6.0 14.0 0.01 0.01 0.01 86 1010.0
20200403135952 39 320 3.0 16.0 0.01 0.01 0.01 86 1010.0
20200403135022 39 308 7.0 16.0 0.01 0.01 0.01 86 1009.9
20200403133952 39 316 8.0 15.0 0.00 0.00 0.00 85 1009.8
20200403132952 39 324 3.0 15.0 0.00 0.00 0.00 85 1009.8
20200403131952 39 333 5.0 16.0 0.00 0.00 0.00 84 1009.8
20200403130952 39 348 9.0 17.0 0.00 0.00 0.00 83 1009.6
20200403125022 39 326 6.0 11.0 0.00 0.00 0.00 81 1009.5
20200403123952 39 307 5.0 15.0 0.00 0.00 0.00 80 1009.4
20200403122952 39 319 12.0 17.0 0.00 0.00 0.00 80 1009.3
20200403121951 39 283 2.0 10.0 0.00 0.00 0.00 80 1009.2
20200403121021 39 298 2.0 12.0 0.00 0.00 0.00 79 1009.1
20200403114957 39 304 7.0 13.0 0.00 0.00 0.00 78 1009.0
20200403113957 39 292 6.0 14.0 0.00 0.00 0.00 78 1009.0
20200403112957 39 335 3.0 16.0 0.00 0.00 0.00 78 1009.0
20200403111957 39 284 6.0 16.0 0.00 0.00 0.00 77 1008.8
20200403110957 40 298 5.0 20.0 0.00 0.00 0.00 77 1008.6
20200403105956 40 323 7.0 28.0 0.00 0.00 0.00 76 1008.3
20200403104956 40 319 5.0 14.0 0.00 0.00 0.00 76 1008.2
20200403104026 40 317 10.0 21.0 0.00 0.00 0.00 75 1008.2
20200403102956 41 293 9.0 25.0 0.00 0.00 0.00 74 1008.2
20200403101956 41 315 5.0 16.0 0.00 0.00 0.00 73 1008.2
20200403095955 41 317 4.0 15.0 0.00 0.00 0.00 72 1007.9
20200403094955 41 313 4.0 13.0 0.00 0.00 0.00 71 1007.9
20200403093955 41 24 6.0 16.0 0.00 0.00 0.00 71 1007.7
20200403092955 41 312 9.0 17.0 0.00 0.00 0.00 71 1007.5
20200403091955 41 285 3.0 16.0 0.00 0.00 0.00 70 1007.5
20200403090955 41 324 4.0 12.0 0.00 0.00 0.00 70 1007.4
20200403085955 42 321 5.0 14.0 0.00 0.00 0.00 69 1007.4
20200403084955 42 274 9.0 13.0 0.00 0.00 0.00 69 1007.3
20200403083954 42 328 2.0 9.0 0.00 0.00 0.00 69 1007.4
20200403082958 42 299 6.0 12.0 0.00 0.00 0.00 69 1007.5
20200403081954 42 310 7.0 12.0 0.00 0.00 0.00 69 1007.5
20200403080954 42 338 3.0 10.0 0.00 0.00 0.00 69 1007.6
20200403074954 42 307 5.0 12.0 0.00 0.00 0.00 69 1007.7
20200403073954 42 263 10.0 14.0 0.00 0.00 0.00 69 1007.8
20200403072954 42 307 5.0 17.0 0.00 0.00 0.00 69 1007.7
20200403070953 42 346 8.0 13.0 0.00 0.00 0.00 68 1007.8
20200403064953 42 308 6.0 16.0 0.00 0.00 0.00 67 1008.1
20200403063953 42 355 1.0 12.0 0.00 0.00 0.00 67 1008.0
20200403062953 42 323 6.0 14.0 0.00 0.00 0.00 66 1008.0
20200403061953 43 286 4.0 12.0 0.00 0.00 0.00 65 1008.1
20200403060952 43 304 5.0 12.0 0.00 0.00 0.00 65 1008.2
20200403054952 43 309 7.0 12.0 0.00 0.00 0.00 63 1008.3
20200403053952 43 296 1.0 14.0 0.00 0.00 0.00 62 1008.3
20200403052952 43 331 12.0 16.0 0.00 0.00 0.00 61 1008.3
20200403051952 43 321 4.0 13.0 0.00 0.00 0.00 60 1008.3
20200403050952 44 329 4.0 14.0 0.00 0.00 0.00 60 1008.3
20200403045952 44 336 4.0 14.0 0.00 0.00 0.00 59 1008.4
20200403045022 44 294 6.0 12.0 0.00 0.00 0.00 58 1008.4
20200403043951 44 310 3.0 9.0 0.00 0.00 0.00 58 1008.5
20200403043021 44 310 4.0 14.0 0.00 0.00 0.00 56 1008.5
20200403041951 45 324 4.0 14.0 0.00 0.00 0.00 56 1008.5
20200403041021 45 330 4.0 13.0 0.00 0.00 0.00 55 1008.5
20200403035957 45 318 5.0 12.0 0.00 0.00 0.00 54 1008.5
20200403033957 45 323 4.0 12.0 0.00 0.00 0.00 53 1008.7
20200403032957 46 319 3.0 16.0 0.00 0.00 0.00 53 1008.8
20200403030956 46 316 5.0 15.0 0.00 0.00 0.00 52 1008.9
20200403024026 46 325 5.0 13.0 0.00 0.00 0.00 53 1009.1
20200403022956 46 324 5.0 12.0 0.00 0.00 0.00 53 1009.1
20200403021956 46 313 9.0 14.0 0.00 0.00 0.00 54 1009.2
20200403020956 46 337 5.0 12.0 0.00 0.00 0.00 54 1009.3
20200403015956 46 338 9.0 14.0 0.00 0.00 0.00 54 1009.3
20200403014955 46 283 7.0 15.0 0.00 0.00 0.00 54 1009.5
20200403013955 46 319 4.0 11.0 0.00 0.00 0.00 54 1009.4
20200403012955 46 320 5.0 10.0 0.00 0.00 0.00 54 1009.5
20200403011955 46 321 2.0 12.0 0.00 0.00 0.00 55 1009.5
20200403010955 46 312 3.0 10.0 0.00 0.00 0.00 55 1009.6
20200403005955 46 323 2.0 10.0 0.00 0.00 0.00 55 1009.6
20200403004955 47 312 5.0 10.0 0.00 0.00 0.00 55 1009.8
20200403003955 47 329 3.0 9.0 0.00 0.00 0.00 55 1009.6
20200403002954 47 282 4.0 9.0 0.00 0.00 0.00 55 1009.6
20200403001954 47 292 3.0 11.0 0.00 0.00 0.00 55 1009.6
20200403000954 47 343 5.0 13.0 0.00 0.00 0.00 55 1009.7